| time (UTC) | temp F | wind direction | speed knots | gust knots | rain 1hr in | rain 24hr in | rain mn in | humidity % | barometer mb |
| 20260503021915 | 57 | 263 | 2.6 | 2.6 | 0.00 | 0.00 | 0.00 | 58 | 1018.2 |
| 20260503021415 | 57 | 268 | 2.6 | 2.6 | 0.00 | 0.00 | 0.00 | 59 | 1018.3 |
| 20260503020915 | 56 | 270 | 1.7 | 2.6 | 0.00 | 0.00 | 0.00 | 59 | 1018.4 |
| 20260503020417 | 56 | 268 | 1.7 | 2.6 | 0.00 | 0.00 | 0.00 | 60 | 1018.4 |
| 20260503015418 | 56 | 258 | 1.7 | 2.6 | 0.00 | 0.00 | 0.00 | 58 | 1018.6 |
| 20260503014916 | 56 | 246 | 2.6 | 2.6 | 0.00 | 0.00 | 0.00 | 58 | 1018.6 |
| 20260503014429 | 56 | 267 | 1.7 | 5.2 | 0.00 | 0.00 | 0.00 | 57 | 1018.6 |
| 20260503013916 | 56 | 264 | 1.7 | 2.6 | 0.00 | 0.00 | 0.00 | 57 | 1018.7 |
| 20260503012916 | 56 | 267 | 1.7 | 2.6 | 0.00 | 0.00 | 0.00 | 57 | 1018.7 |
| 20260503011916 | 56 | 271 | 1.7 | 2.6 | 0.00 | 0.00 | 0.00 | 57 | 1018.8 |
| 20260503011417 | 56 | 246 | 0.9 | 2.6 | 0.00 | 0.00 | 0.00 | 57 | 1018.8 |
| 20260503010915 | 56 | 283 | 1.7 | 2.6 | 0.00 | 0.00 | 0.00 | 58 | 1018.9 |
| 20260503005915 | 56 | 256 | 1.7 | 2.6 | 0.00 | 0.00 | 0.00 | 58 | 1019.0 |
| 20260503005416 | 56 | 253 | 1.7 | 2.6 | 0.00 | 0.00 | 0.00 | 58 | 1019.0 |
| 20260503004915 | 56 | 257 | 1.7 | 2.6 | 0.00 | 0.00 | 0.00 | 58 | 1019.1 |
| 20260503004415 | 56 | 279 | 1.7 | 2.6 | 0.00 | 0.00 | 0.00 | 57 | 1019.1 |
| 20260503003418 | 57 | 260 | 0.9 | 2.6 | 0.00 | 0.00 | 0.00 | 57 | 1019.1 |
| 20260503001915 | 57 | 280 | 1.7 | 2.6 | 0.00 | 0.00 | 0.00 | 56 | 1019.1 |
| 20260503001415 | 57 | 289 | 0.9 | 2.6 | 0.00 | 0.00 | 0.00 | 57 | 1019.1 |
| 20260503000915 | 57 | 280 | 1.7 | 4.3 | 0.00 | 0.00 | 0.00 | 57 | 1019.2 |
| 20260503000415 | 57 | 245 | 1.7 | 2.6 | 0.00 | 0.00 | 0.00 | 58 | 1019.2 |
| 20260502235916 | 57 | 289 | 1.7 | 2.6 | 0.00 | 0.00 | 0.00 | 58 | 1019.3 |
| 20260502235422 | 57 | 275 | 1.7 | 5.2 | 0.00 | 0.00 | 0.00 | 60 | 1019.3 |
| 20260502234915 | 58 | 266 | 1.7 | 2.6 | 0.00 | 0.00 | 0.00 | 60 | 1019.4 |
| 20260502234417 | 58 | 266 | 1.7 | 5.2 | 0.00 | 0.00 | 0.00 | 60 | 1019.4 |
| 20260502233915 | 58 | 270 | 2.6 | 5.2 | 0.00 | 0.01 | 0.00 | 59 | 1019.5 |
| 20260502233415 | 58 | 270 | 2.6 | 6.1 | 0.00 | 0.01 | 0.00 | 58 | 1019.6 |
| 20260502232915 | 58 | 272 | 2.6 | 2.6 | 0.00 | 0.01 | 0.00 | 57 | 1019.6 |
| 20260502232418 | 58 | 276 | 2.6 | 5.2 | 0.00 | 0.01 | 0.00 | 58 | 1019.8 |
| 20260502231915 | 59 | 266 | 2.6 | 5.2 | 0.00 | 0.01 | 0.00 | 57 | 1019.8 |
| 20260502231415 | 59 | 267 | 2.6 | 4.3 | 0.00 | 0.01 | 0.00 | 59 | 1020.0 |
| 20260502230915 | 59 | 271 | 2.6 | 4.3 | 0.00 | 0.01 | 0.00 | 60 | 1020.1 |
| 20260502230415 | 59 | 257 | 1.7 | 5.2 | 0.00 | 0.01 | 0.00 | 63 | 1020.2 |
| 20260502225917 | 59 | 263 | 2.6 | 4.3 | 0.00 | 0.01 | 0.00 | 62 | 1020.3 |
| 20260502224918 | 59 | 274 | 2.6 | 2.6 | 0.00 | 0.01 | 0.00 | 59 | 1020.3 |
| 20260502224427 | 59 | 271 | 1.7 | 2.6 | 0.00 | 0.01 | 0.00 | 59 | 1020.4 |
| 20260502223915 | 59 | 266 | 1.7 | 2.6 | 0.00 | 0.01 | 0.00 | 61 | 1020.4 |
| 20260502223417 | 59 | 269 | 1.7 | 2.6 | 0.00 | 0.01 | 0.00 | 61 | 1020.5 |
| 20260502222917 | 59 | 266 | 1.7 | 2.6 | 0.00 | 0.01 | 0.00 | 62 | 1020.5 |
| 20260502222421 | 59 | 268 | 0.9 | 2.6 | 0.00 | 0.01 | 0.00 | 61 | 1020.5 |
| 20260502221916 | 59 | 250 | 0.9 | 2.6 | 0.00 | 0.01 | 0.00 | 61 | 1020.6 |
| 20260502221416 | 59 | 255 | 0.9 | 2.6 | 0.00 | 0.01 | 0.00 | 60 | 1020.6 |
| 20260502220416 | 59 | 262 | 1.7 | 2.6 | 0.00 | 0.01 | 0.00 | 56 | 1020.7 |
| 20260502215417 | 60 | 246 | 1.7 | 2.6 | 0.00 | 0.01 | 0.01 | 51 | 1020.7 |
| 20260502214916 | 61 | 285 | 1.7 | 2.6 | 0.00 | 0.01 | 0.01 | 51 | 1020.8 |
| 20260502214415 | 61 | 294 | 1.7 | 2.6 | 0.00 | 0.01 | 0.01 | 51 | 1020.8 |
| 20260502213416 | 60 | 302 | 1.7 | 2.6 | 0.00 | 0.01 | 0.01 | 51 | 1020.8 |
| 20260502212415 | 60 | 311 | 1.7 | 2.6 | 0.00 | 0.01 | 0.01 | 50 | 1020.8 |
| 20260502211917 | 60 | 315 | 1.7 | 2.6 | 0.00 | 0.01 | 0.01 | 50 | 1020.8 |
| 20260502211415 | 60 | 302 | 1.7 | 2.6 | 0.00 | 0.01 | 0.01 | 50 | 1020.8 |
| 20260502210916 | 60 | 302 | 1.7 | 2.6 | 0.00 | 0.01 | 0.01 | 50 | 1020.9 |
| 20260502210416 | 60 | 314 | 1.7 | 2.6 | 0.00 | 0.01 | 0.01 | 50 | 1021.0 |
| 20260502205915 | 60 | 308 | 1.7 | 2.6 | 0.00 | 0.01 | 0.01 | 49 | 1020.9 |
| 20260502204930 | 59 | 292 | 1.7 | 2.6 | 0.00 | 0.01 | 0.01 | 49 | 1020.9 |
| 20260502204417 | 59 | 310 | 2.6 | 2.6 | 0.00 | 0.01 | 0.01 | 49 | 1020.9 |
| 20260502203915 | 59 | 307 | 1.7 | 4.3 | 0.00 | 0.01 | 0.01 | 49 | 1021.0 |
| 20260502203424 | 59 | 303 | 0.9 | 2.6 | 0.00 | 0.01 | 0.01 | 49 | 1021.0 |
| 20260502202922 | 59 | 318 | 1.7 | 2.6 | 0.00 | 0.01 | 0.01 | 49 | 1021.0 |
| 20260502201916 | 59 | 312 | 1.7 | 2.6 | 0.00 | 0.01 | 0.01 | 48 | 1021.0 |
| 20260502201415 | 60 | 315 | 1.7 | 2.6 | 0.00 | 0.01 | 0.01 | 47 | 1021.0 |
| 20260502200914 | 60 | 302 | 1.7 | 2.6 | 0.00 | 0.01 | 0.01 | 47 | 1021.0 |
| 20260502200416 | 60 | 321 | 1.7 | 2.6 | 0.00 | 0.01 | 0.01 | 47 | 1021.0 |
| 20260502195915 | 60 | 329 | 1.7 | 2.6 | 0.00 | 0.01 | 0.01 | 46 | 1021.0 |
| 20260502195417 | 60 | 298 | 0.9 | 2.6 | 0.00 | 0.01 | 0.01 | 45 | 1021.0 |
| 20260502194916 | 60 | 285 | 1.7 | 2.6 | 0.00 | 0.01 | 0.01 | 44 | 1021.0 |
| 20260502194419 | 60 | 317 | 1.7 | 4.3 | 0.00 | 0.01 | 0.01 | 44 | 1021.0 |
| 20260502192918 | 60 | 337 | 1.7 | 2.6 | 0.00 | 0.01 | 0.01 | 43 | 1021.0 |
| 20260502192415 | 60 | 297 | 1.7 | 4.3 | 0.00 | 0.01 | 0.01 | 42 | 1020.9 |
| 20260502191915 | 60 | 305 | 1.7 | 2.6 | 0.00 | 0.01 | 0.01 | 42 | 1020.9 |
| 20260502191415 | 60 | 310 | 1.7 | 2.6 | 0.00 | 0.01 | 0.01 | 43 | 1020.9 |
| 20260502190915 | 60 | 308 | 1.7 | 2.6 | 0.00 | 0.01 | 0.01 | 42 | 1020.7 |
| 20260502190416 | 61 | 300 | 1.7 | 2.6 | 0.00 | 0.01 | 0.01 | 41 | 1020.7 |
| 20260502185921 | 61 | 312 | 1.7 | 2.6 | 0.00 | 0.01 | 0.01 | 40 | 1020.6 |
| 20260502185416 | 62 | 312 | 2.6 | 2.6 | 0.00 | 0.01 | 0.01 | 39 | 1020.6 |
| 20260502184916 | 62 | 328 | 1.7 | 2.6 | 0.00 | 0.01 | 0.01 | 39 | 1020.5 |
| 20260502184418 | 63 | 284 | 1.7 | 2.6 | 0.00 | 0.01 | 0.01 | 38 | 1020.5 |
| 20260502183916 | 63 | 270 | 0.9 | 2.6 | 0.00 | 0.01 | 0.01 | 37 | 1020.5 |
| 20260502183415 | 63 | 290 | 0.9 | 5.2 | 0.00 | 0.01 | 0.01 | 37 | 1020.5 |
| 20260502182918 | 63 | 304 | 0.9 | 5.2 | 0.00 | 0.01 | 0.01 | 37 | 1020.4 |
| 20260502182423 | 63 | 310 | 1.7 | 2.6 | 0.00 | 0.01 | 0.01 | 36 | 1020.4 |
| 20260502181415 | 64 | 299 | 2.6 | 4.3 | 0.00 | 0.01 | 0.01 | 36 | 1020.3 |
| 20260502180915 | 64 | 284 | 1.7 | 2.6 | 0.00 | 0.01 | 0.01 | 35 | 1020.3 |
| 20260502180416 | 64 | 354 | 0.9 | 2.6 | 0.00 | 0.01 | 0.01 | 35 | 1020.2 |
| 20260502170416 | 66 | 272 | 0.9 | 2.6 | 0.00 | 0.01 | 0.01 | 30 | 1019.8 |
| 20260502163915 | 66 | 278 | 0.9 | 4.3 | 0.00 | 0.01 | 0.01 | 29 | 1019.9 |
| 20260502163416 | 66 | 4 | 0.9 | 4.3 | 0.00 | 0.01 | 0.01 | 30 | 1019.9 |
| 20260502162918 | 66 | 322 | 1.7 | 2.6 | 0.00 | 0.01 | 0.01 | 28 | 1019.9 |
| 20260502162416 | 66 | 275 | 1.7 | 6.1 | 0.00 | 0.01 | 0.01 | 28 | 1019.9 |
| 20260502161415 | 67 | 307 | 1.7 | 2.6 | 0.00 | 0.01 | 0.01 | 28 | 1019.8 |
| 20260502160915 | 67 | 293 | 1.7 | 4.3 | 0.00 | 0.01 | 0.01 | 27 | 1019.8 |
| 20260502160415 | 67 | 281 | 0.9 | 2.6 | 0.00 | 0.01 | 0.01 | 28 | 1019.8 |
| 20260502151915 | 67 | 321 | 1.7 | 2.6 | 0.00 | 0.01 | 0.01 | 26 | 1020.1 |
| 20260502151414 | 67 | 320 | 1.7 | 4.3 | 0.00 | 0.01 | 0.01 | 28 | 1020.0 |
| 20260502150915 | 67 | 314 | 1.7 | 4.3 | 0.00 | 0.01 | 0.01 | 27 | 1020.1 |
| 20260502150415 | 67 | 315 | 1.7 | 2.6 | 0.00 | 0.01 | 0.01 | 27 | 1020.2 |
| 20260502123415 | 66 | 341 | 1.7 | 2.6 | 0.00 | 0.01 | 0.01 | 32 | 1020.5 |
| 20260502122919 | 66 | 0 | 1.7 | 2.6 | 0.00 | 0.01 | 0.01 | 33 | 1020.6 |
| 20260502122417 | 66 | 290 | 1.7 | 4.3 | 0.00 | 0.01 | 0.01 | 33 | 1020.5 |
| 20260502121915 | 66 | 5 | 1.7 | 7.0 | 0.00 | 0.01 | 0.01 | 35 | 1020.6 |
| 20260502120914 | 66 | 54 | 1.7 | 2.6 | 0.00 | 0.01 | 0.01 | 36 | 1020.6 |
| 20260502115917 | 65 | 297 | 1.7 | 4.3 | 0.00 | 0.01 | 0.01 | 36 | 1020.7 |
| 20260502114914 | 66 | 313 | 0.9 | 2.6 | 0.00 | 0.01 | 0.01 | 36 | 1020.8 |
| 20260502114416 | 65 | 29 | 2.6 | 4.3 | 0.00 | 0.01 | 0.01 | 36 | 1020.8 |
| 20260502112915 | 65 | 73 | 2.6 | 4.3 | 0.00 | 0.01 | 0.01 | 38 | 1020.8 |
| 20260502111414 | 65 | 35 | 2.6 | 5.2 | 0.00 | 0.01 | 0.01 | 37 | 1021.1 |
| 20260502110914 | 65 | 26 | 2.6 | 7.0 | 0.00 | 0.01 | 0.01 | 36 | 1021.1 |
| 20260502110414 | 65 | 330 | 1.7 | 7.0 | 0.00 | 0.01 | 0.01 | 35 | 1021.1 |
| 20260502105915 | 65 | 46 | 1.7 | 4.3 | 0.00 | 0.01 | 0.01 | 36 | 1021.1 |
| 20260502105416 | 65 | 26 | 1.7 | 2.6 | 0.00 | 0.01 | 0.01 | 35 | 1021.1 |
| 20260502104418 | 65 | 327 | 2.6 | 7.0 | 0.00 | 0.01 | 0.01 | 35 | 1021.1 |
| 20260502103915 | 65 | 14 | 1.7 | 2.6 | 0.00 | 0.01 | 0.01 | 33 | 1021.2 |
| 20260502103415 | 65 | 89 | 1.7 | 5.2 | 0.00 | 0.01 | 0.01 | 33 | 1021.1 |
| 20260502102915 | 65 | 25 | 1.7 | 2.6 | 0.00 | 0.01 | 0.01 | 33 | 1021.2 |
| 20260502102415 | 65 | 24 | 1.7 | 2.6 | 0.00 | 0.01 | 0.01 | 33 | 1021.2 |
| 20260502101415 | 65 | 2 | 1.7 | 5.2 | 0.00 | 0.01 | 0.01 | 34 | 1021.3 |
| 20260502100915 | 65 | 46 | 1.7 | 4.3 | 0.00 | 0.01 | 0.01 | 33 | 1021.3 |
| 20260502091416 | 64 | 23 | 1.7 | 10.4 | 0.00 | 0.01 | 0.01 | 35 | 1021.3 |
| 20260502090916 | 64 | 37 | 2.6 | 4.3 | 0.00 | 0.01 | 0.01 | 35 | 1021.3 |
| 20260502090415 | 64 | 45 | 1.7 | 2.6 | 0.00 | 0.01 | 0.01 | 36 | 1021.3 |
| 20260502071415 | 62 | 22 | 1.7 | 5.2 | 0.00 | 0.01 | 0.01 | 39 | 1021.3 |
| 20260502070915 | 62 | 69 | 1.7 | 4.3 | 0.00 | 0.01 | 0.01 | 38 | 1021.2 |
| 20260502070415 | 61 | 6 | 2.6 | 5.2 | 0.00 | 0.01 | 0.01 | 38 | 1021.2 |
| 20260502065914 | 61 | 282 | 1.7 | 4.3 | 0.00 | 0.01 | 0.01 | 41 | 1021.3 |
| 20260502064915 | 59 | 334 | 1.7 | 4.3 | 0.00 | 0.01 | 0.01 | 48 | 1021.3 |
| 20260502064424 | 59 | 351 | 1.7 | 2.6 | 0.00 | 0.01 | 0.01 | 52 | 1021.4 |
| 20260502063414 | 58 | 265 | 1.7 | 2.6 | 0.00 | 0.01 | 0.01 | 56 | 1021.3 |
| 20260502062916 | 57 | 273 | 1.7 | 2.6 | 0.00 | 0.01 | 0.01 | 57 | 1021.3 |
| 20260502061917 | 57 | 265 | 1.7 | 2.6 | 0.00 | 0.01 | 0.01 | 60 | 1021.2 |
| 20260502061414 | 56 | 269 | 2.6 | 5.2 | 0.00 | 0.01 | 0.01 | 61 | 1021.2 |
| 20260502060913 | 57 | 259 | 1.7 | 2.6 | 0.00 | 0.01 | 0.01 | 61 | 1021.2 |
| 20260502060415 | 56 | 284 | 1.7 | 2.6 | 0.00 | 0.01 | 0.01 | 62 | 1021.3 |
| 20260502055913 | 56 | 278 | 1.7 | 2.6 | 0.00 | 0.01 | 0.01 | 60 | 1021.2 |
| 20260502055416 | 56 | 270 | 1.7 | 2.6 | 0.00 | 0.01 | 0.01 | 60 | 1021.2 |
| 20260502054414 | 56 | 271 | 2.6 | 2.6 | 0.00 | 0.01 | 0.01 | 61 | 1021.2 |
| 20260502053914 | 56 | 252 | 1.7 | 2.6 | 0.00 | 0.01 | 0.01 | 61 | 1021.2 |
| 20260502053413 | 56 | 253 | 1.7 | 2.6 | 0.00 | 0.01 | 0.01 | 60 | 1021.2 |
| 20260502052918 | 56 | 259 | 1.7 | 2.6 | 0.00 | 0.01 | 0.01 | 58 | 1021.2 |
| 20260502052417 | 56 | 264 | 1.7 | 2.6 | 0.00 | 0.01 | 0.01 | 59 | 1021.2 |
| 20260502051923 | 55 | 299 | 1.7 | 2.6 | 0.00 | 0.01 | 0.01 | 60 | 1021.2 |
| 20260502051414 | 55 | 295 | 1.7 | 2.6 | 0.00 | 0.01 | 0.01 | 63 | 1021.3 |
| 20260502050914 | 55 | 276 | 1.7 | 2.6 | 0.00 | 0.01 | 0.01 | 62 | 1021.3 |
| 20260502050414 | 55 | 271 | 1.7 | 2.6 | 0.00 | 0.01 | 0.01 | 62 | 1021.3 |
| 20260502045914 | 55 | 299 | 1.7 | 2.6 | 0.00 | 0.01 | 0.01 | 60 | 1021.3 |
| 20260502045416 | 56 | 268 | 1.7 | 2.6 | 0.00 | 0.01 | 0.01 | 56 | 1021.2 |
| 20260502044915 | 56 | 291 | 0.9 | 2.6 | 0.00 | 0.01 | 0.01 | 57 | 1021.2 |
| 20260502044415 | 56 | 278 | 1.7 | 2.6 | 0.00 | 0.01 | 0.01 | 56 | 1021.2 |
| 20260502043914 | 56 | 306 | 1.7 | 2.6 | 0.00 | 0.01 | 0.01 | 54 | 1021.1 |
| 20260502042917 | 56 | 263 | 1.7 | 2.6 | 0.00 | 0.01 | 0.01 | 51 | 1021.0 |
| 20260502042418 | 56 | 279 | 1.7 | 2.6 | 0.00 | 0.01 | 0.01 | 51 | 1020.9 |
| 20260502041918 | 56 | 280 | 0.9 | 2.6 | 0.00 | 0.01 | 0.01 | 51 | 1020.9 |
| 20260502040415 | 56 | 308 | 1.7 | 2.6 | 0.00 | 0.01 | 0.01 | 51 | 1020.8 |
| 20260502035915 | 56 | 291 | 1.7 | 2.6 | 0.00 | 0.01 | 0.01 | 51 | 1020.8 |
| 20260502035414 | 56 | 277 | 1.7 | 2.6 | 0.00 | 0.01 | 0.01 | 50 | 1020.8 |
| 20260502034915 | 56 | 275 | 0.9 | 2.6 | 0.00 | 0.01 | 0.01 | 50 | 1020.7 |
| 20260502034417 | 56 | 285 | 0.9 | 2.6 | 0.00 | 0.01 | 0.01 | 51 | 1020.7 |
| 20260502033915 | 56 | 263 | 1.7 | 2.6 | 0.00 | 0.01 | 0.01 | 49 | 1020.6 |
| 20260502033418 | 56 | 277 | 0.9 | 2.6 | 0.00 | 0.01 | 0.01 | 49 | 1020.7 |
| 20260502032919 | 56 | 285 | 0.9 | 1.7 | 0.00 | 0.01 | 0.01 | 49 | 1020.7 |
| 20260502032419 | 56 | 260 | 0.9 | 2.6 | 0.00 | 0.01 | 0.01 | 49 | 1020.6 |
| 20260502031914 | 56 | 352 | 0.9 | 2.6 | 0.00 | 0.01 | 0.01 | 49 | 1020.6 |
| 20260502031415 | 55 | 295 | 0.9 | 2.6 | 0.00 | 0.01 | 0.01 | 49 | 1020.6 |
| 20260502030414 | 56 | 301 | 0.9 | 2.6 | 0.00 | 0.01 | 0.01 | 49 | 1020.6 |
| 20260502025416 | 55 | 293 | 1.7 | 2.6 | 0.00 | 0.01 | 0.01 | 49 | 1020.6 |
| 20260502024915 | 55 | 301 | 0.9 | 2.6 | 0.00 | 0.01 | 0.01 | 48 | 1020.6 |
| 20260502024414 | 56 | 279 | 0.0 | 0.9 | 0.00 | 0.01 | 0.01 | 48 | 1020.6 |
| 20260502023914 | 56 | 283 | 0.9 | 2.6 | 0.00 | 0.01 | 0.01 | 47 | 1020.6 |
| 20260502023415 | 56 | 292 | 1.7 | 2.6 | 0.00 | 0.01 | 0.01 | 48 | 1020.6 |
| 20260502022414 | 55 | 311 | 0.9 | 2.6 | 0.00 | 0.01 | 0.01 | 49 | 1020.6 |